Record,Date/Time,10,Tamb(K),Rh(%),Pres(mb),Rain,Vint(cm),Lqint(mm), 0.00, 0.10, 0.20, 0.30, 0.40, 0.50, 0.60, 0.70, 0.80, 0.90, 1.00, 1.25, 1.50, 1.75, 2.00, 2.25, 2.50, 2.75, 3.00, 3.25, 3.50, 3.75, 4.00, 4.25, 4.50, 4.75, 5.00, 5.25, 5.50, 5.75, 6.00, 6.25, 6.50, 6.75, 7.00, 7.25, 7.50, 7.75, 8.00, 8.25, 8.50, 8.75, 9.00, 9.25, 9.50, 9.75,10.00
     1,10/04/05 05:32:14,13,298.3, 85.2,1010.8,N, 5.63, 0.00,19.73,18.04,17.82,17.64,17.55,17.19,16.62,16.10,15.88,15.48,15.03,13.38,12.67,12.71,12.84,11.08,10.98,10.70, 9.91, 9.05, 9.24, 7.53, 6.50, 5.18, 3.93, 3.28, 2.56, 2.10, 2.02, 1.82, 1.50, 1.33, 1.11, 0.97, 0.66, 0.65, 0.67, 0.51, 0.34, 0.31, 0.18, 0.12, 0.09, 0.08, 0.06, 0.04, 0.03
     2,10/04/05 05:33:14,13,298.4, 86.6,1010.7,N, 5.65, 0.00,20.13,18.25,18.01,17.79,17.68,17.29,16.61,16.06,15.82,15.43,14.98,13.25,12.48,12.65,12.73,10.85,10.88,10.67,10.13, 9.40, 9.94, 8.13, 7.06, 5.59, 4.22, 3.53, 2.73, 2.23, 2.17, 1.96, 1.61, 1.42, 1.19, 1.05, 0.69, 0.68, 0.70, 0.51, 0.34, 0.31, 0.17, 0.12, 0.09, 0.08, 0.06, 0.04, 0.03
     3,10/04/05 05:34:14,13,298.2, 85.2,1010.6,N, 5.53, 0.00,19.63,17.64,17.33,17.11,16.93,16.55,15.99,15.48,15.20,14.76,14.35,12.90,12.35,12.38,12.33,10.68,10.34, 9.98, 9.23, 8.57, 8.87, 7.40, 6.53, 5.44, 4.34, 3.68, 2.89, 2.39, 2.28, 2.05, 1.72, 1.49, 1.22, 1.05, 0.72, 0.70, 0.70, 0.52, 0.35, 0.32, 0.18, 0.12, 0.09, 0.08, 0.06, 0.04, 0.03
     4,10/04/05 05:35:14,13,298.3, 86.0,1010.8,N, 5.66, 0.00,19.86,18.52,18.33,18.16,18.10,17.76,17.17,16.66,16.50,16.15,15.72,14.01,13.19,13.14,12.81,10.53,10.17, 9.54, 8.85, 8.12, 8.34, 6.88, 5.88, 4.72, 3.56, 2.98, 2.33, 1.90, 1.81, 1.61, 1.35, 1.18, 1.00, 0.88, 0.61, 0.60, 0.62, 0.47, 0.33, 0.30, 0.17, 0.12, 0.09, 0.08, 0.06, 0.04, 0.03
     5,10/04/05 05:36:14,13,298.2, 85.8,1010.6,N, 5.60, 0.00,19.78,17.81,17.61,17.40,17.26,16.92,16.34,15.88,15.63,15.17,14.71,13.18,12.63,12.60,12.77,11.34,11.31,11.12,10.28, 9.40, 9.43, 7.61, 6.49, 5.09, 3.82, 3.16, 2.47, 2.00, 1.90, 1.71, 1.42, 1.26, 1.05, 0.92, 0.63, 0.61, 0.64, 0.48, 0.33, 0.30, 0.17, 0.12, 0.09, 0.08, 0.06, 0.04, 0.03
     6,10/04/05 05:37:14,13,298.2, 85.5,1010.7,N, 5.67, 0.00,19.68,18.36,18.16,18.00,17.92,17.59,17.04,16.56,16.40,16.03,15.62,14.02,13.31,13.25,12.85,10.58,10.01, 9.27, 8.46, 7.76, 7.95, 6.62, 5.70, 4.72, 3.67, 3.09, 2.41, 1.99, 1.88, 1.67, 1.41, 1.22, 1.03, 0.90, 0.63, 0.62, 0.64, 0.48, 0.34, 0.31, 0.18, 0.12, 0.09, 0.08, 0.06, 0.04, 0.03
     7,10/04/05 05:38:14,13,298.3, 85.7,1011.0,N, 5.61, 0.00,19.89,18.12,17.88,17.68,17.56,17.21,16.60,16.11,15.88,15.46,15.03,13.44,12.80,12.79,12.60,10.71,10.41, 9.95, 9.25, 8.57, 8.85, 7.31, 6.33, 5.14, 3.96, 3.33, 2.59, 2.12, 2.01, 1.81, 1.51, 1.32, 1.10, 0.96, 0.65, 0.64, 0.65, 0.48, 0.33, 0.31, 0.17, 0.12, 0.09, 0.08, 0.06, 0.04, 0.03
     8,10/04/05 05:39:14,13,298.2, 85.0,1011.1,N, 5.60, 0.00,19.57,18.12,17.85,17.69,17.58,17.23,16.71,16.19,15.99,15.60,15.19,13.63,12.96,12.89,12.52,10.39, 9.80, 9.14, 8.37, 7.74, 7.99, 6.73, 5.90, 4.99, 3.98, 3.39, 2.66, 2.21, 2.09, 1.86, 1.58, 1.35, 1.13, 0.98, 0.68, 0.66, 0.67, 0.50, 0.35, 0.31, 0.18, 0.12, 0.09, 0.08, 0.06, 0.04, 0.03
     9,10/04/05 05:40:14,13,298.2, 85.0,1010.8,N, 5.58, 0.00,19.65,17.96,17.68,17.50,17.35,17.00,16.46,15.98,15.75,15.32,14.92,13.45,12.91,12.84,12.44,10.50, 9.89, 9.24, 8.46, 7.87, 8.09, 6.81, 5.96, 5.04, 4.04, 3.42, 2.68, 2.22, 2.08, 1.86, 1.58, 1.35, 1.13, 0.97, 0.67, 0.65, 0.66, 0.49, 0.34, 0.31, 0.18, 0.12, 0.09, 0.08, 0.06, 0.04, 0.03
    10,10/04/05 05:41:14,13,298.2, 85.7,1010.9,N, 5.65, 0.00,19.80,18.50,18.34,18.18,18.08,17.80,17.26,16.88,16.73,16.29,15.90,14.39,13.83,13.52,12.65,10.47, 9.68, 8.71, 7.90, 7.32, 7.29, 6.07, 5.08, 4.23, 3.29, 2.75, 2.16, 1.75, 1.59, 1.40, 1.21, 1.03, 0.88, 0.77, 0.54, 0.54, 0.54, 0.41, 0.30, 0.29, 0.17, 0.12, 0.09, 0.08, 0.06, 0.04, 0.03
    11,10/04/05 05:42:14,13,298.2, 85.1,1010.7,N, 5.71, 0.00,19.67,18.79,18.61,18.49,18.42,18.14,17.62,17.19,17.08,16.70,16.36,14.78,14.12,13.84,12.70,10.12, 9.06, 7.91, 7.11, 6.60, 6.69, 5.70, 4.84, 4.24, 3.44, 2.93, 2.29, 1.90, 1.72, 1.50, 1.32, 1.09, 0.94, 0.81, 0.57, 0.57, 0.57, 0.43, 0.32, 0.30, 0.18, 0.12, 0.09, 0.08, 0.06, 0.04, 0.03
    12,10/04/05 05:43:14,13,298.2, 84.2,1010.8,N, 5.63, 0.00,19.40,18.55,18.35,18.24,18.15,17.88,17.41,16.97,16.83,16.45,16.10,14.56,13.93,13.55,12.46,10.04, 8.95, 7.84, 7.02, 6.50, 6.48, 5.55, 4.74, 4.21, 3.47, 2.97, 2.35, 1.95, 1.76, 1.53, 1.35, 1.11, 0.95, 0.81, 0.58, 0.58, 0.57, 0.43, 0.32, 0.30, 0.18, 0.12, 0.09, 0.08, 0.07, 0.04, 0.03
    13,10/04/05 05:44:14,13,298.3, 86.2,1010.8,N, 5.74, 0.00,20.01,18.97,18.80,18.64,18.55,18.29,17.72,17.35,17.23,16.80,16.46,14.89,14.31,14.00,12.68,10.26, 9.23, 7.99, 7.26, 6.84, 6.95, 5.85, 4.87, 4.22, 3.40, 2.87, 2.23, 1.83, 1.63, 1.41, 1.25, 1.02, 0.88, 0.78, 0.54, 0.54, 0.53, 0.40, 0.30, 0.29, 0.17, 0.12, 0.09, 0.08, 0.06, 0.04, 0.03
    14,10/04/05 05:45:14,13,298.2, 85.9,1010.7,N, 5.73, 0.00,19.76,18.87,18.66,18.52,18.42,18.14,17.61,17.20,17.07,16.66,16.33,14.77,14.19,13.89,12.62,10.10, 8.97, 7.74, 6.97, 6.56, 6.71, 5.75, 4.88, 4.37, 3.63, 3.10, 2.42, 2.01, 1.81, 1.57, 1.38, 1.13, 0.97, 0.84, 0.59, 0.59, 0.58, 0.43, 0.32, 0.30, 0.18, 0.12, 0.09, 0.08, 0.06, 0.04, 0.03
    15,10/04/05 05:46:14,13,298.3, 86.3,1010.8,N, 5.68, 0.00,19.96,18.79,18.63,18.47,18.38,18.11,17.54,17.16,17.03,16.60,16.24,14.67,14.06,13.73,12.58,10.21, 9.33, 8.22, 7.50, 7.02, 7.07, 5.93, 4.94, 4.16, 3.27, 2.75, 2.14, 1.74, 1.57, 1.37, 1.20, 1.00, 0.86, 0.76, 0.53, 0.53, 0.53, 0.40, 0.29, 0.28, 0.17, 0.11, 0.09, 0.08, 0.06, 0.04, 0.03
    16,10/04/05 05:47:14,13,298.3, 86.6,1010.6,N, 5.69, 0.00,20.02,18.92,18.75,18.59,18.50,18.24,17.66,17.24,17.11,16.67,16.31,14.65,14.04,13.68,12.43,10.01, 9.09, 7.99, 7.33, 6.93, 7.08, 5.99, 5.04, 4.30, 3.42, 2.90, 2.26, 1.85, 1.66, 1.45, 1.27, 1.05, 0.90, 0.79, 0.54, 0.55, 0.54, 0.40, 0.30, 0.29, 0.17, 0.11, 0.09, 0.08, 0.06, 0.04, 0.03
    17,10/04/05 05:48:14,13,298.2, 85.6,1010.6,N, 5.74, 0.04,19.72,19.01,18.87,18.75,18.68,18.44,17.93,17.54,17.43,16.99,16.65,15.01,14.43,13.96,12.68,10.32, 9.23, 8.01, 7.19, 6.72, 6.68, 5.64, 4.68, 4.12, 3.36, 2.85, 2.23, 1.84, 1.63, 1.41, 1.24, 1.02, 0.88, 0.77, 0.54, 0.55, 0.54, 0.41, 0.31, 0.30, 0.18, 0.12, 0.09, 0.08, 0.06, 0.04, 0.03
    18,10/04/05 05:49:14,13,298.3, 85.7,1010.6,N, 5.69, 0.00,19.84,18.60,18.43,18.27,18.15,17.90,17.38,16.99,16.84,16.33,15.97,14.45,14.04,13.63,12.55,10.49, 9.50, 8.43, 7.61, 7.15, 7.17, 6.03, 5.06, 4.36, 3.53, 2.98, 2.32, 1.90, 1.70, 1.48, 1.30, 1.08, 0.92, 0.80, 0.56, 0.56, 0.55, 0.41, 0.31, 0.30, 0.17, 0.12, 0.09, 0.08, 0.06, 0.04, 0.03
    19,10/04/05 05:50:14,13,298.0, 89.6,1010.6,N, 5.77, 0.00,20.31,19.57,19.37,19.18,19.11,18.81,18.16,17.79,17.70,17.37,17.07,15.34,14.49,14.29,12.54, 9.50, 8.47, 7.02, 6.51, 6.28, 6.69, 5.74, 4.79, 4.22, 3.41, 2.93, 2.27, 1.87, 1.68, 1.44, 1.27, 1.03, 0.91, 0.81, 0.54, 0.55, 0.53, 0.39, 0.29, 0.29, 0.16, 0.11, 0.08, 0.08, 0.06, 0.04, 0.03
    20,10/04/05 05:51:14,13,297.7, 91.2,1010.3,N, 5.73, 0.00,20.33,19.28,19.07,18.82,18.69,18.40,17.77,17.39,17.25,16.81,16.50,14.81,14.16,13.88,12.27, 9.57, 8.61, 7.26, 6.77, 6.62, 7.10, 6.10, 5.15, 4.52, 3.69, 3.19, 2.47, 2.03, 1.83, 1.57, 1.39, 1.12, 0.98, 0.87, 0.57, 0.58, 0.55, 0.40, 0.29, 0.29, 0.16, 0.11, 0.08, 0.07, 0.06, 0.04, 0.03
    21,10/04/05 05:52:14,13,297.6, 89.7,1010.6,N, 5.69, 0.00,19.94,18.74,18.51,18.28,18.11,17.80,17.24,16.86,16.69,16.23,15.89,14.40,13.90,13.62,12.37, 9.95, 8.97, 7.75, 7.08, 6.78, 7.10, 6.09, 5.20, 4.59, 3.78, 3.25, 2.54, 2.10, 1.91, 1.65, 1.45, 1.19, 1.02, 0.89, 0.61, 0.61, 0.58, 0.43, 0.31, 0.31, 0.17, 0.12, 0.09, 0.08, 0.06, 0.04, 0.03
    22,10/04/05 05:53:14,13,297.7, 90.5,1010.5,N, 5.73, 0.00,20.19,19.18,18.90,18.66,18.49,18.15,17.53,17.15,16.98,16.59,16.30,14.73,14.09,13.93,12.29, 9.51, 8.41, 7.00, 6.48, 6.33, 6.87, 6.00, 5.14, 4.71, 4.01, 3.50, 2.71, 2.27, 2.05, 1.76, 1.55, 1.24, 1.08, 0.95, 0.63, 0.64, 0.59, 0.43, 0.31, 0.31, 0.17, 0.12, 0.09, 0.08, 0.06, 0.04, 0.03
    23,10/04/05 05:54:14,13,297.5, 91.2,1010.5,N, 5.74, 0.21,20.17,19.30,19.04,18.78,18.59,18.29,17.72,17.36,17.16,16.72,16.43,14.84,14.24,13.92,12.25, 9.88, 8.81, 7.33, 6.78, 6.65, 7.02, 6.02, 5.00, 4.60, 3.91, 3.40, 2.64, 2.18, 1.93, 1.64, 1.44, 1.15, 0.99, 0.89, 0.60, 0.61, 0.56, 0.41, 0.30, 0.31, 0.17, 0.12, 0.09, 0.08, 0.06, 0.04, 0.03
    24,10/04/05 05:55:14,13,297.4, 90.5,1010.8,N, 5.72, 0.17,19.93,19.17,18.93,18.69,18.52,18.22,17.67,17.29,17.11,16.68,16.38,14.80,14.19,13.81,12.26, 9.85, 8.76, 7.36, 6.74, 6.53, 6.81, 5.86, 4.91, 4.52, 3.84, 3.34, 2.62, 2.17, 1.93, 1.65, 1.45, 1.16, 1.00, 0.88, 0.61, 0.61, 0.57, 0.42, 0.31, 0.31, 0.17, 0.12, 0.09, 0.08, 0.06, 0.04, 0.03
    25,10/04/05 05:56:14,13,297.5, 90.8,1010.5,N, 5.80, 0.14,20.06,19.41,19.31,19.11,19.01,18.79,18.27,17.93,17.81,17.31,16.96,15.22,14.65,14.06,12.62,10.30, 9.36, 7.98, 7.27, 6.97, 7.05, 5.90, 4.78, 4.14, 3.32, 2.83, 2.20, 1.78, 1.58, 1.35, 1.19, 0.97, 0.84, 0.76, 0.52, 0.53, 0.52, 0.39, 0.29, 0.30, 0.17, 0.12, 0.09, 0.08, 0.06, 0.04, 0.03
    26,10/04/05 05:57:14,13,297.4, 91.0,1010.2,N, 5.61, 0.02,20.02,18.64,18.23,17.93,17.65,17.25,16.65,16.25,15.99,15.58,15.31,13.96,13.45,13.38,11.80, 9.31, 8.15, 6.81, 6.34, 6.26, 6.92, 6.15, 5.44, 5.18, 4.62, 4.09, 3.21, 2.72, 2.46, 2.11, 1.85, 1.47, 1.25, 1.08, 0.72, 0.72, 0.65, 0.46, 0.32, 0.32, 0.18, 0.12, 0.09, 0.08, 0.06, 0.04, 0.03
    27,10/04/05 05:58:14,13,297.5, 91.6,1010.7,N, 5.77, 0.00,20.15,19.23,19.08,18.85,18.74,18.46,17.88,17.53,17.41,16.99,16.64,14.99,14.35,14.01,12.60, 9.92, 9.01, 7.65, 7.02, 6.74, 7.05, 5.98, 4.99, 4.29, 3.42, 2.92, 2.28, 1.86, 1.68, 1.45, 1.27, 1.05, 0.91, 0.81, 0.55, 0.56, 0.54, 0.40, 0.30, 0.30, 0.17, 0.11, 0.09, 0.08, 0.06, 0.04, 0.03
    28,10/04/05 05:59:14,13,297.3, 89.7,1010.4,N, 5.73, 0.00,19.57,18.89,18.73,18.55,18.43,18.16,17.67,17.28,17.15,16.73,16.37,14.80,14.22,13.77,12.61,10.08, 9.03, 7.78, 6.97, 6.55, 6.67, 5.72, 4.83, 4.29, 3.53, 3.03, 2.40, 1.99, 1.80, 1.56, 1.36, 1.12, 0.97, 0.85, 0.59, 0.60, 0.58, 0.44, 0.33, 0.31, 0.18, 0.12, 0.09, 0.08, 0.07, 0.04, 0.03
    29,10/04/05 06:00:14,13,297.4, 91.6,1010.5,N, 5.69, 0.00,20.08,19.03,18.76,18.49,18.31,17.97,17.37,17.00,16.82,16.41,16.11,14.59,13.95,13.73,12.17, 9.50, 8.45, 7.08, 6.55, 6.38, 6.86, 5.97, 5.11, 4.64, 3.90, 3.41, 2.67, 2.22, 2.00, 1.72, 1.51, 1.22, 1.05, 0.92, 0.62, 0.63, 0.58, 0.42, 0.31, 0.31, 0.17, 0.12, 0.09, 0.08, 0.06, 0.04, 0.03
    30,10/04/05 06:01:14,13,297.2, 92.0,1010.5,N, 5.83, 0.00,19.97,19.29,19.21,18.99,18.92,18.66,18.10,17.78,17.70,17.31,16.94,15.30,14.61,14.25,13.04,10.21, 9.33, 7.96, 7.19, 6.76, 6.95, 5.84, 4.81, 4.06, 3.15, 2.67, 2.09, 1.70, 1.55, 1.35, 1.16, 0.98, 0.86, 0.77, 0.53, 0.54, 0.54, 0.41, 0.31, 0.30, 0.17, 0.12, 0.09, 0.08, 0.06, 0.04, 0.03
    31,10/04/05 06:02:14,13,297.3, 92.4,1010.6,N, 5.78, 0.04,20.12,19.50,19.33,19.10,18.98,18.70,18.11,17.77,17.65,17.26,16.95,15.25,14.51,14.14,12.51, 9.71, 8.70, 7.22, 6.64, 6.42, 6.75, 5.78, 4.79, 4.26, 3.48, 3.00, 2.35, 1.93, 1.73, 1.48, 1.30, 1.05, 0.92, 0.82, 0.56, 0.57, 0.54, 0.40, 0.30, 0.30, 0.17, 0.11, 0.09, 0.08, 0.06, 0.04, 0.03
    32,10/04/05 06:03:14,13,297.1, 92.1,1010.4,N, 5.79, 0.13,19.84,19.29,19.15,18.92,18.79,18.53,18.00,17.66,17.53,17.09,16.75,15.13,14.53,14.04,12.65,10.15, 9.12, 7.69, 6.95, 6.65, 6.81, 5.79, 4.77, 4.25, 3.49, 3.00, 2.35, 1.93, 1.73, 1.48, 1.29, 1.06, 0.92, 0.82, 0.57, 0.58, 0.56, 0.42, 0.31, 0.31, 0.17, 0.12, 0.09, 0.08, 0.06, 0.04, 0.03
    33,10/04/05 06:04:14,13,297.2, 92.0,1010.6,N, 5.84, 0.12,19.98,19.84,19.76,19.57,19.51,19.29,18.76,18.38,18.30,17.89,17.55,15.66,14.87,14.27,12.65, 9.87, 8.86, 7.39, 6.73, 6.46, 6.62, 5.63, 4.59, 4.06, 3.30, 2.85, 2.23, 1.83, 1.63, 1.39, 1.22, 0.99, 0.87, 0.78, 0.54, 0.55, 0.53, 0.39, 0.30, 0.30, 0.17, 0.12, 0.09, 0.08, 0.06, 0.04, 0.03
    34,10/04/05 06:05:14,13,297.2, 92.7,1010.6,N, 5.71, 0.27,20.11,19.02,18.74,18.44,18.20,17.89,17.35,17.01,16.77,16.28,15.97,14.49,14.04,13.67,12.14,10.06, 9.03, 7.57, 7.01, 6.91, 7.27, 6.22, 5.17, 4.74, 4.03, 3.51, 2.74, 2.25, 1.99, 1.70, 1.48, 1.18, 1.02, 0.91, 0.62, 0.63, 0.57, 0.41, 0.30, 0.31, 0.17, 0.12, 0.09, 0.08, 0.06, 0.04, 0.03
    35,10/04/05 06:06:14,13,297.1, 90.9,1010.8,N, 5.77, 0.71,19.58,19.74,19.67,19.45,19.32,19.13,18.66,18.27,18.06,17.51,17.15,15.33,14.70,13.75,12.31,10.47, 9.36, 7.95, 7.26, 7.00, 6.80, 5.76, 4.50, 4.08, 3.42, 2.99, 2.34, 1.93, 1.66, 1.41, 1.21, 0.97, 0.84, 0.78, 0.56, 0.57, 0.54, 0.40, 0.31, 0.32, 0.18, 0.13, 0.09, 0.08, 0.06, 0.04, 0.03
    36,10/04/05 06:07:14,13,297.1, 92.8,1010.5,Y, 5.97, 0.93,20.00,20.88,20.88,20.67,20.61,20.44,19.93,19.53,19.37,18.82,18.49,16.38,15.53,14.58,12.78,10.52, 9.25, 7.52, 6.91, 6.82, 6.83, 5.82, 4.36, 3.99, 3.34, 2.96, 2.26, 1.86, 1.61, 1.35, 1.16, 0.91, 0.82, 0.78, 0.55, 0.58, 0.54, 0.39, 0.31, 0.33, 0.17, 0.13, 0.09, 0.08, 0.06, 0.04, 0.02
    37,10/04/05 06:08:14,13,297.1, 93.8,1010.6,Y, 5.85, 0.67,20.23,20.01,19.76,19.47,19.27,18.98,18.46,18.10,17.86,17.38,17.10,15.38,14.72,14.26,12.44,10.27, 9.08, 7.32, 6.81, 6.81, 7.17, 6.15, 4.88, 4.62, 3.99, 3.53, 2.71, 2.23, 1.96, 1.64, 1.41, 1.10, 0.97, 0.90, 0.61, 0.63, 0.57, 0.41, 0.30, 0.33, 0.17, 0.12, 0.09, 0.08, 0.06, 0.03, 0.02
    38,10/04/05 06:09:14,13,297.2, 93.9,1010.7,Y, 5.88, 0.44,20.29,19.69,19.50,19.22,19.05,18.79,18.27,17.97,17.78,17.28,16.97,15.33,14.79,14.36,12.71,10.54, 9.48, 7.77, 7.14, 7.06, 7.36, 6.20, 4.93, 4.48, 3.72, 3.21, 2.47, 2.00, 1.77, 1.50, 1.30, 1.04, 0.91, 0.84, 0.57, 0.59, 0.54, 0.40, 0.29, 0.32, 0.17, 0.12, 0.09, 0.08, 0.06, 0.04, 0.03
    39,10/04/05 06:10:15,13,297.0, 93.8,1010.9,Y, 5.82, 0.83,20.12,19.83,19.53,19.20,18.95,18.63,18.13,17.75,17.45,16.95,16.67,15.08,14.52,14.08,12.33,10.41, 9.14, 7.38, 6.89, 6.90, 7.27, 6.29, 4.99, 4.77, 4.19, 3.74, 2.87, 2.38, 2.09, 1.75, 1.49, 1.16, 1.01, 0.95, 0.65, 0.67, 0.60, 0.43, 0.31, 0.34, 0.17, 0.13, 0.09, 0.08, 0.06, 0.03, 0.02
    40,10/04/05 06:11:14,13,297.2, 94.1,1010.7,Y, 5.68, 0.60,20.42,19.24,18.78,18.41,18.08,17.69,17.17,16.85,16.53,16.07,15.83,14.46,13.93,13.80,11.96,10.08, 8.96, 7.18, 6.81, 6.92, 7.51, 6.45, 5.26, 5.04, 4.45, 3.96, 3.05, 2.50, 2.19, 1.84, 1.58, 1.22, 1.06, 0.97, 0.65, 0.66, 0.57, 0.40, 0.28, 0.31, 0.16, 0.11, 0.08, 0.07, 0.06, 0.03, 0.02
    41,10/04/05 06:12:14,13,296.8, 93.0,1010.7,Y, 5.64, 1.33,19.76,19.64,19.29,18.88,18.54,18.18,17.69,17.29,16.88,16.34,16.04,14.67,14.12,13.56,12.04,10.57, 9.23, 7.53, 7.12, 7.08, 7.20, 6.25, 4.79, 4.44, 3.85, 3.50, 2.72, 2.25, 1.96, 1.64, 1.34, 1.04, 0.92, 0.89, 0.65, 0.66, 0.58, 0.42, 0.31, 0.34, 0.17, 0.14, 0.09, 0.07, 0.06, 0.03, 0.02
    42,10/04/05 06:13:14,13,296.9, 92.0,1010.6,Y, 5.73, 1.52,19.58,20.09,19.88,19.50,19.23,18.93,18.39,17.97,17.60,17.07,16.75,15.26,14.61,13.95,12.46,10.78, 9.32, 7.61, 7.12, 6.99, 6.95, 6.05, 4.50, 4.10, 3.48, 3.16, 2.44, 2.04, 1.79, 1.50, 1.20, 0.95, 0.85, 0.84, 0.63, 0.65, 0.59, 0.43, 0.33, 0.36, 0.18, 0.15, 0.10, 0.07, 0.06, 0.03, 0.02
    43,10/04/05 06:14:14,13,296.9, 92.6,1010.8,Y, 5.85, 1.47,19.72,20.31,20.11,19.73,19.49,19.16,18.59,18.19,17.84,17.37,17.09,15.62,14.93,14.48,12.89,10.89, 9.32, 7.43, 6.90, 6.78, 6.90, 6.04, 4.51, 4.21, 3.60, 3.26, 2.50, 2.10, 1.86, 1.56, 1.25, 0.98, 0.89, 0.89, 0.66, 0.69, 0.63, 0.45, 0.34, 0.37, 0.18, 0.15, 0.10, 0.07, 0.06, 0.03, 0.02
    44,10/04/05 06:15:14,13,296.7, 92.8,1010.6,Y, 5.77, 1.10,19.56,19.77,19.53,19.18,18.91,18.59,18.06,17.64,17.29,16.83,16.54,15.04,14.44,13.91,12.36,10.44, 9.04, 7.37, 6.84, 6.70, 6.87, 6.03, 4.73, 4.53, 3.99, 3.59, 2.81, 2.38, 2.10, 1.75, 1.44, 1.14, 1.00, 0.95, 0.69, 0.71, 0.64, 0.46, 0.34, 0.36, 0.19, 0.14, 0.10, 0.08, 0.07, 0.04, 0.02
    45,10/04/05 06:16:14,13,296.7, 93.2,1010.6,Y, 5.74, 0.93,19.67,19.47,19.20,18.84,18.56,18.23,17.72,17.35,17.01,16.53,16.24,14.82,14.29,13.79,12.29,10.50, 9.21, 7.57, 7.01, 6.87, 7.04, 6.10, 4.83, 4.59, 4.01, 3.56, 2.79, 2.33, 2.05, 1.72, 1.43, 1.13, 0.99, 0.93, 0.67, 0.68, 0.61, 0.45, 0.33, 0.35, 0.18, 0.14, 0.09, 0.08, 0.07, 0.04, 0.03
    46,10/04/05 06:17:14,13,297.0, 93.3,1010.6,Y, 5.94, 0.82,19.93,20.60,20.63,20.41,20.35,20.19,19.68,19.36,19.21,18.67,18.34,16.35,15.51,14.58,12.92,10.71, 9.56, 7.84, 7.15, 6.96, 6.81, 5.71, 4.25, 3.78, 3.06, 2.66, 2.05, 1.66, 1.44, 1.22, 1.04, 0.84, 0.75, 0.71, 0.51, 0.53, 0.51, 0.38, 0.30, 0.32, 0.17, 0.13, 0.09, 0.08, 0.06, 0.04, 0.02
    47,10/04/05 06:18:14,13,296.9, 93.7,1010.7,Y, 5.78, 0.83,19.92,19.95,19.76,19.45,19.25,18.98,18.48,18.13,17.87,17.36,17.05,15.36,14.66,13.97,12.31,10.38, 9.22, 7.56, 7.01, 6.91, 6.99, 5.96, 4.62, 4.26, 3.62, 3.20, 2.49, 2.04, 1.77, 1.49, 1.26, 1.00, 0.88, 0.82, 0.58, 0.60, 0.54, 0.40, 0.30, 0.32, 0.17, 0.13, 0.09, 0.08, 0.06, 0.04, 0.02
    48,10/04/05 06:19:14,13,296.6, 92.7,1010.8,Y, 5.88, 0.73,19.44,20.17,20.16,19.95,19.86,19.68,19.21,18.79,18.60,18.08,17.74,15.75,15.03,14.06,12.54,10.27, 9.04, 7.53, 6.81, 6.59, 6.54, 5.66, 4.44, 4.15, 3.54, 3.14, 2.46, 2.07, 1.82, 1.53, 1.31, 1.05, 0.92, 0.85, 0.61, 0.63, 0.59, 0.43, 0.34, 0.34, 0.19, 0.14, 0.10, 0.08, 0.07, 0.04, 0.03
    49,10/04/05 06:20:14,13,296.7, 92.4,1010.8,Y, 5.75, 0.69,19.52,19.09,18.88,18.57,18.33,18.05,17.58,17.22,16.93,16.41,16.08,14.66,14.26,13.66,12.37,10.65, 9.46, 7.98, 7.27, 7.03, 7.07, 6.06, 4.88, 4.56, 3.92, 3.43, 2.71, 2.25, 1.98, 1.68, 1.42, 1.14, 0.98, 0.90, 0.65, 0.66, 0.61, 0.45, 0.33, 0.34, 0.19, 0.13, 0.09, 0.08, 0.07, 0.04, 0.03
    50,10/04/05 06:21:14,13,296.7, 92.7,1010.6,Y, 5.71, 0.84,19.54,19.09,18.77,18.41,18.10,17.75,17.26,16.85,16.49,16.02,15.72,14.37,13.96,13.52,12.09,10.37, 9.06, 7.52, 6.95, 6.81, 7.07, 6.20, 5.08, 4.94, 4.44, 3.96, 3.13, 2.64, 2.34, 1.97, 1.64, 1.30, 1.12, 1.03, 0.74, 0.75, 0.66, 0.48, 0.34, 0.36, 0.19, 0.14, 0.09, 0.08, 0.07, 0.04, 0.03
    51,10/04/05 06:22:14,13,296.5, 92.1,1010.5,Y, 5.71, 0.76,19.27,19.52,19.36,19.09,18.90,18.64,18.16,17.74,17.47,17.01,16.69,15.01,14.34,13.56,12.12,10.11, 8.89, 7.45, 6.81, 6.56, 6.52, 5.67, 4.55, 4.31, 3.76, 3.34, 2.66, 2.25, 1.97, 1.65, 1.40, 1.12, 0.97, 0.88, 0.65, 0.65, 0.60, 0.44, 0.34, 0.34, 0.19, 0.14, 0.10, 0.08, 0.07, 0.04, 0.03
    52,10/04/05 06:23:14,13,296.4, 92.4,1010.4,Y, 5.62, 0.73,19.21,18.80,18.53,18.19,17.90,17.57,17.11,16.72,16.38,15.93,15.61,14.27,13.79,13.22,11.94,10.23, 9.04, 7.63, 6.99, 6.73, 6.77, 5.90, 4.84, 4.61, 4.07, 3.61, 2.90, 2.45, 2.15, 1.82, 1.52, 1.22, 1.04, 0.95, 0.70, 0.69, 0.63, 0.46, 0.34, 0.34, 0.19, 0.14, 0.10, 0.08, 0.07, 0.04, 0.03
    53,10/04/05 06:24:14,13,296.5, 92.7,1010.7,Y, 5.59, 0.89,19.38,18.99,18.72,18.37,18.07,17.75,17.28,16.92,16.56,16.06,15.73,14.37,13.87,13.20,11.88,10.37, 9.23, 7.80, 7.23, 7.01, 6.94, 5.96, 4.74, 4.40, 3.79, 3.36, 2.68, 2.22, 1.93, 1.63, 1.36, 1.09, 0.94, 0.86, 0.64, 0.64, 0.58, 0.43, 0.31, 0.33, 0.18, 0.13, 0.09, 0.08, 0.07, 0.04, 0.03
    54,10/04/05 06:25:15,13,296.4, 93.4,1010.3,Y, 5.76, 1.31,19.38,20.15,20.03,19.68,19.46,19.20,18.67,18.24,17.90,17.39,17.06,15.38,14.65,13.84,12.32,10.40, 9.03, 7.41, 6.89, 6.74, 6.70, 5.86, 4.44, 4.11, 3.51, 3.19, 2.50, 2.11, 1.85, 1.55, 1.26, 1.00, 0.89, 0.86, 0.64, 0.66, 0.61, 0.44, 0.34, 0.36, 0.19, 0.15, 0.10, 0.08, 0.07, 0.04, 0.02
    55,10/04/05 06:26:14,13,296.5, 92.5,1010.4,Y, 5.75, 0.76,19.32,19.47,19.33,19.05,18.86,18.61,18.14,17.76,17.49,17.00,16.67,15.06,14.46,13.71,12.35,10.41, 9.20, 7.72, 7.03, 6.76, 6.68, 5.76, 4.57, 4.26, 3.65, 3.22, 2.55, 2.14, 1.88, 1.58, 1.33, 1.07, 0.93, 0.86, 0.63, 0.64, 0.60, 0.44, 0.33, 0.34, 0.19, 0.14, 0.10, 0.08, 0.07, 0.04, 0.03
    56,10/04/05 06:27:15,13,296.5, 92.6,1010.4,Y, 5.72, 0.32,19.35,19.28,19.15,18.92,18.78,18.53,18.07,17.69,17.51,17.07,16.73,15.05,14.38,13.65,12.30, 9.98, 8.90, 7.52, 6.78, 6.45, 6.43, 5.53, 4.54, 4.16, 3.51, 3.07, 2.46, 2.05, 1.82, 1.54, 1.33, 1.08, 0.93, 0.83, 0.60, 0.60, 0.57, 0.43, 0.32, 0.32, 0.18, 0.13, 0.09, 0.08, 0.07, 0.04, 0.03
    57,10/04/05 06:28:14,13,296.7, 93.4,1010.5,Y, 5.79, 0.38,19.65,19.46,19.31,19.05,18.89,18.62,18.12,17.77,17.59,17.15,16.83,15.19,14.54,13.96,12.50,10.16, 9.06, 7.55, 6.84, 6.58, 6.69, 5.73, 4.66, 4.29, 3.62, 3.15, 2.49, 2.07, 1.84, 1.56, 1.34, 1.08, 0.94, 0.85, 0.60, 0.61, 0.57, 0.43, 0.32, 0.32, 0.18, 0.13, 0.09, 0.08, 0.06, 0.04, 0.03
    58,10/04/05 06:29:14,13,296.9, 94.0,1010.4,Y, 5.67, 0.50,20.01,19.19,18.88,18.54,18.28,17.95,17.44,17.12,16.84,16.36,16.06,14.60,14.05,13.61,12.03,10.13, 9.11, 7.55, 7.03, 6.93, 7.18, 6.11, 4.95, 4.58, 3.91, 3.43, 2.69, 2.20, 1.92, 1.62, 1.40, 1.11, 0.96, 0.87, 0.61, 0.61, 0.55, 0.40, 0.29, 0.31, 0.17, 0.12, 0.09, 0.08, 0.06, 0.04, 0.03
    59,10/04/05 06:30:14,13,296.9, 93.7,1010.2,Y, 5.86, 0.60,19.96,20.13,20.12,19.89,19.80,19.62,19.14,18.84,18.70,18.16,17.81,15.92,15.18,14.28,12.73,10.63, 9.65, 8.04, 7.33, 7.10, 6.94, 5.75, 4.37, 3.81, 3.04, 2.61, 2.03, 1.63, 1.41, 1.20, 1.03, 0.84, 0.74, 0.69, 0.49, 0.51, 0.49, 0.37, 0.29, 0.30, 0.17, 0.12, 0.09, 0.08, 0.06, 0.04, 0.03
    60,10/04/05 06:31:15,13,296.8, 93.4,1010.5,Y, 5.65, 0.47,19.78,18.95,18.67,18.34,18.07,17.75,17.25,16.92,16.64,16.15,15.83,14.42,13.94,13.44,12.00,10.16, 9.12, 7.67, 7.08, 6.91, 7.08, 6.05, 4.96, 4.59, 3.94, 3.44, 2.72, 2.24, 1.97, 1.67, 1.43, 1.15, 0.98, 0.89, 0.62, 0.63, 0.57, 0.42, 0.30, 0.32, 0.17, 0.12, 0.09, 0.08, 0.06, 0.04, 0.03
    61,10/04/05 06:32:14,13,296.8, 93.5,1010.3,Y, 5.66, 0.70,19.87,19.37,19.08,18.74,18.48,18.16,17.66,17.31,17.02,16.53,16.23,14.74,14.13,13.58,12.01,10.23, 9.14, 7.57, 7.05, 6.93, 7.06, 6.02, 4.80, 4.45, 3.83, 3.38, 2.65, 2.18, 1.89, 1.59, 1.35, 1.07, 0.93, 0.85, 0.61, 0.61, 0.55, 0.41, 0.29, 0.31, 0.17, 0.12, 0.09, 0.08, 0.06, 0.04, 0.03
    62,10/04/05 06:33:14,13,296.8, 94.3,1010.3,Y, 5.84, 0.44,19.97,19.83,19.78,19.53,19.42,19.23,18.74,18.44,18.29,17.76,17.40,15.59,14.95,14.14,12.65,10.50, 9.56, 8.01, 7.31, 7.08, 7.04, 5.86, 4.57, 3.99, 3.20, 2.75, 2.14, 1.73, 1.51, 1.28, 1.11, 0.90, 0.79, 0.73, 0.51, 0.53, 0.50, 0.38, 0.29, 0.30, 0.17, 0.12, 0.09, 0.08, 0.06, 0.04, 0.03
    63,10/04/05 06:34:14,13,296.8, 94.0,1010.3,Y, 5.86, 0.46,19.92,20.04,20.04,19.82,19.74,19.58,19.10,18.79,18.67,18.14,17.77,15.84,15.12,14.20,12.69,10.47, 9.54, 8.00, 7.28, 7.02, 6.90, 5.73, 4.42, 3.83, 3.05, 2.62, 2.04, 1.64, 1.43, 1.22, 1.05, 0.86, 0.76, 0.70, 0.50, 0.51, 0.49, 0.37, 0.29, 0.30, 0.17, 0.12, 0.09, 0.08, 0.06, 0.04, 0.03
    64,10/04/05 06:35:14,13,296.9, 92.6,1010.3,Y, 5.68, 0.37,19.72,18.96,18.70,18.40,18.16,17.84,17.34,16.99,16.74,16.27,15.96,14.51,14.01,13.53,12.12,10.10, 9.03, 7.61, 6.97, 6.76, 6.94, 5.97, 4.94, 4.58, 3.94, 3.44, 2.72, 2.26, 2.00, 1.69, 1.46, 1.17, 1.01, 0.90, 0.63, 0.63, 0.58, 0.43, 0.31, 0.32, 0.18, 0.12, 0.09, 0.08, 0.06, 0.04, 0.03
    65,10/04/05 06:36:14,13,296.7, 92.1,1010.4,Y, 5.79, 0.34,19.44,19.59,19.55,19.35,19.27,19.06,18.60,18.24,18.11,17.66,17.30,15.50,14.77,13.95,12.59,10.23, 9.19, 7.78, 6.98, 6.60, 6.45, 5.47, 4.37, 3.90, 3.20, 2.76, 2.20, 1.81, 1.60, 1.36, 1.17, 0.96, 0.84, 0.75, 0.55, 0.55, 0.54, 0.41, 0.31, 0.31, 0.18, 0.13, 0.09, 0.08, 0.07, 0.04, 0.03
    66,10/04/05 06:37:14,13,297.0, 91.5,1010.1,Y, 5.70, 0.70,19.70,19.42,19.18,18.89,18.65,18.36,17.85,17.47,17.20,16.72,16.42,14.86,14.25,13.66,12.14,10.28, 9.10, 7.61, 7.02, 6.82, 6.89, 5.91, 4.73, 4.44, 3.85, 3.39, 2.67, 2.21, 1.92, 1.62, 1.38, 1.10, 0.95, 0.87, 0.62, 0.63, 0.57, 0.42, 0.31, 0.32, 0.18, 0.13, 0.09, 0.08, 0.06, 0.04, 0.03
    67,10/04/05 06:38:14,13,296.9, 93.4,1010.2,Y, 5.84, 1.28,19.94,20.61,20.43,20.09,19.88,19.59,19.04,18.65,18.35,17.86,17.58,15.86,15.03,14.42,12.64,10.55, 9.13, 7.26, 6.77, 6.73, 6.85, 5.93, 4.42, 4.10, 3.50, 3.17, 2.43, 2.02, 1.76, 1.47, 1.21, 0.94, 0.85, 0.83, 0.60, 0.63, 0.57, 0.41, 0.32, 0.35, 0.17, 0.14, 0.09, 0.07, 0.06, 0.03, 0.02
    68,10/04/05 06:39:14,13,297.3, 94.4,1010.2,Y, 5.85, 1.82,20.52,20.99,20.47,20.04,19.74,19.28,18.85,18.44,18.08,17.62,17.43,16.09,15.26,15.34,13.40,11.32, 9.45, 6.88, 6.43, 6.61, 7.10, 6.20, 4.44, 4.13, 3.54, 3.34, 2.45, 2.01, 1.79, 1.49, 1.19, 0.88, 0.84, 0.86, 0.61, 0.65, 0.57, 0.39, 0.30, 0.36, 0.16, 0.14, 0.09, 0.07, 0.06, 0.03, 0.02